This is the latest recevied weather packets stored in our database for station/object KM8V-8. If no packets are shown the sender has not sent any weather packets the latest 1 day(s).
| Time | Temp. | Humidity | Pressure | Rain* | Wind** | Luminosity | Snow |
|---|---|---|---|---|---|---|---|
| 1778034019 | 9.44° C | 99% | 1008.9 hPa | 3.05 mm | - | 0 W/m² | - |
| 1778033718 | 9.44° C | 99% | 1008.9 hPa | 2.54 mm | - | 0 W/m² | - |
| 1778033419 | 9.44° C | 99% | 1008.9 hPa | 2.29 mm | - | 0 W/m² | - |
| 1778033118 | 9.44° C | 99% | 1008.9 hPa | 2.03 mm | - | 0 W/m² | - |
| 1778032218 | 9.44° C | 99% | 1008.7 hPa | 1.02 mm | - | 0 W/m² | - |
| 1778031918 | 9.44° C | 99% | 1008.7 hPa | 1.02 mm | - | 0 W/m² | - |
| 1778031618 | 9.44° C | 99% | 1008.8 hPa | 1.02 mm | - | 0 W/m² | - |
| 1778031318 | 9.44° C | 99% | 1008.7 hPa | 0.51 mm | - | 0 W/m² | - |
| 1778031018 | 9.44° C | 99% | 1008.7 hPa | 0.51 mm | - | 0 W/m² | - |
| 1778030719 | 9.44° C | 99% | 1008.7 hPa | 0.25 mm | - | 0 W/m² | - |
| 1778030419 | 9.44° C | 99% | 1008.7 hPa | 0.25 mm | - | 0 W/m² | - |
| 1778030119 | 9.44° C | 99% | 1008.6 hPa | 0.51 mm | - | 0 W/m² | - |
| 1778029820 | 9.44° C | 98% | 1008.6 hPa | 0.51 mm | - | 0 W/m² | - |
| 1778029520 | 9.44° C | 98% | 1008.5 hPa | 0.76 mm | - | 0 W/m² | - |
| 1778029220 | 9.44° C | 98% | 1008.5 hPa | 0.76 mm | - | 0 W/m² | - |
| 1778028919 | 9.44° C | 98% | 1008.5 hPa | 0.76 mm | - | 0 W/m² | - |
| 1778028619 | 9.44° C | 98% | 1008.5 hPa | 0.76 mm | - | 0 W/m² | - |
| 1778028319 | 9.44° C | 98% | 1008.7 hPa | 0.76 mm | - | 0 W/m² | - |
| 1778027719 | 9.44° C | 98% | 1008.8 hPa | 0.51 mm | - | 0 W/m² | - |
| 1778027120 | 9.44° C | 98% | 1008.3 hPa | 0.51 mm | - | 1 W/m² | - |
| 1778026820 | 9.44° C | 98% | 1008.2 hPa | 0.51 mm | - | 1 W/m² | - |
| 1778026220 | 9.44° C | 98% | 1008.1 hPa | 0.51 mm | - | 5 W/m² | - |
| 1778025321 | 9.44° C | 98% | 1008.2 hPa | 0.76 mm | - | 15 W/m² | - |
| 1778024721 | 9.44° C | 98% | 1008 hPa | 1.52 mm | - | 15 W/m² | - |
| 1778024421 | 9.44° C | 98% | 1008.1 hPa | 2.29 mm | - | 16 W/m² | - |
* Rain latest hour (hover to see other rain measurements)
** Current wind speed in m/s (hover to see current wind gust speed)